Location: Be Tobo
(6.6442°N, 10.6239°W)
Time: 04:04:54
(UTC+00:00)

Cosmos 1844 - Pass Details

Date: 18 September 2020
Orbit: 824 x 866 km, 70.9° (Epoch: 23 October)

Event Time Altitude Azimuth Distance (km) Brightness Sun altitude
Rises 19:13:52 0° 175° (S) 3,439 6.8 -9.1°
Reaches altitude 10° 19:16:36 10° 165° (SSE) 2,499 6.0 -9.8°
Maximum altitude 19:21:36 31° 104° (ESE) 1,466 4.4 -11.1°
Drops below altitude 10° 19:26:33 10° 44° (NE) 2,478 5.8 -12.3°
Sets 19:29:15 0° 34° (NE) 3,406 6.5 -13.0°
